TimeEST,TemperatureF,Dew PointF,Humidity,Sea Level PressureIn,VisibilityMPH,Wind Direction,Wind SpeedMPH,Gust SpeedMPH,PrecipitationIn,Events,Conditions,WindDirDegrees,DateUTC
12:53 AM,30.9,23.0,72,30.18,10.0,West,16.1,21.9,N/A,,Mostly Cloudy,260,2013-01-04 05:53:00
1:53 AM,30.0,21.9,72,30.16,10.0,West,18.4,25.3,N/A,,Mostly Cloudy,260,2013-01-04 06:53:00
2:43 AM,30.2,21.2,69,30.13,10.0,West,21.9,27.6,N/A,,Scattered Clouds,260,2013-01-04 07:43:00
2:50 AM,30.2,21.2,69,30.14,10.0,West,17.3,26.5,N/A,,Mostly Cloudy,260,2013-01-04 07:50:00
2:53 AM,30.0,21.9,72,30.17,10.0,West,21.9,28.8,N/A,,Mostly Cloudy,260,2013-01-04 07:53:00
4:53 AM,28.9,21.0,72,30.14,10.0,WSW,20.7,27.6,N/A,,Overcast,250,2013-01-04 09:53:00
5:53 AM,28.0,19.9,72,30.13,10.0,WSW,20.7,25.3,N/A,,Scattered Clouds,250,2013-01-04 10:53:00
7:02 AM,28.4,21.2,74,30.11,10.0,WSW,24.2,34.5,N/A,,Mostly Cloudy,250,2013-01-04 12:02:00
7:53 AM,28.0,21.0,75,30.14,10.0,WSW,19.6,28.8,N/A,,Overcast,250,2013-01-04 12:53:00
8:28 AM,28.4,21.2,74,30.12,10.0,WSW,18.4,32.2,N/A,,Overcast,250,2013-01-04 13:28:00
8:53 AM,28.9,21.0,72,30.15,10.0,West,21.9,31.1,N/A,,Overcast,260,2013-01-04 13:53:00
9:53 AM,30.0,23.0,75,30.14,10.0,WSW,23.0,34.5,N/A,,Overcast,250,2013-01-04 14:53:00
10:33 AM,30.2,23.0,75,30.10,10.0,WSW,23.0,32.2,N/A,,Overcast,240,2013-01-04 15:33:00
10:53 AM,30.9,23.0,72,30.13,10.0,WSW,25.3,31.1,N/A,,Mostly Cloudy,240,2013-01-04 15:53:00
11:53 AM,33.1,25.0,72,30.12,10.0,WSW,26.5,35.7,N/A,,Mostly Cloudy,250,2013-01-04 16:53:00
12:10 PM,33.8,24.8,70,30.09,10.0,WSW,24.2,35.7,N/A,,Mostly Cloudy,240,2013-01-04 17:10:00
12:53 PM,33.1,25.0,72,30.09,10.0,WSW,24.2,31.1,N/A,,Overcast,240,2013-01-04 17:53:00
1:53 PM,33.1,25.0,72,30.08,10.0,WSW,19.6,28.8,N/A,,Overcast,240,2013-01-04 18:53:00
2:53 PM,34.0,24.1,67,30.08,10.0,West,18.4,31.1,N/A,,Mostly Cloudy,260,2013-01-04 19:53:00
3:15 PM,33.8,24.8,70,30.06,10.0,West,21.9,29.9,N/A,,Scattered Clouds,260,2013-01-04 20:15:00
3:24 PM,35.6,24.8,65,30.06,10.0,WSW,24.2,31.1,N/A,,Mostly Cloudy,250,2013-01-04 20:24:00
3:53 PM,35.1,25.0,67,30.09,10.0,WSW,23.0,28.8,N/A,,Mostly Cloudy,250,2013-01-04 20:53:00
4:31 PM,35.6,24.8,65,30.08,10.0,West,16.1,28.8,N/A,,Scattered Clouds,260,2013-01-04 21:31:00
4:53 PM,35.1,23.0,61,30.12,10.0,West,16.1,26.5,N/A,,Partly Cloudy,270,2013-01-04 21:53:00
5:09 PM,35.6,24.8,65,30.10,10.0,West,16.1,23.0,N/A,,Mostly Cloudy,260,2013-01-04 22:09:00
5:17 PM,35.6,24.8,65,30.09,10.0,West,19.6,26.5,N/A,,Scattered Clouds,260,2013-01-04 22:17:00
5:25 PM,35.6,24.8,65,30.10,10.0,West,16.1,-,N/A,,Mostly Cloudy,260,2013-01-04 22:25:00
5:43 PM,35.6,24.8,65,30.10,10.0,West,16.1,21.9,N/A,,Scattered Clouds,270,2013-01-04 22:43:00
5:53 PM,34.0,23.0,64,30.13,10.0,West,15.0,-,N/A,,Partly Cloudy,260,2013-01-04 22:53:00
6:53 PM,34.0,24.1,67,30.15,10.0,West,13.8,-,N/A,,Clear,270,2013-01-04 23:53:00
7:53 PM,34.0,24.1,67,30.17,10.0,West,12.7,-,N/A,,Clear,260,2013-01-05 00:53:00
8:53 PM,34.0,24.1,67,30.18,10.0,West,13.8,-,N/A,,Clear,260,2013-01-05 01:53:00
9:53 PM,34.0,25.0,70,30.19,10.0,West,13.8,-,N/A,,Clear,260,2013-01-05 02:53:00
10:53 PM,34.0,25.0,70,30.19,10.0,West,12.7,-,N/A,,Partly Cloudy,260,2013-01-05 03:53:00
11:53 PM,32.0,25.0,75,30.20,10.0,WSW,9.2,-,N/A,,Partly Cloudy,250,2013-01-05 04:53:00